Augusto C. Sandino (Managua) International Airport
MNMG : now visible

Airfield :











YOU CAN JOIN US ON...

 
LOGIN :

Register | Disclaimer

   EN    FR    IT 

 









Legend :    VFR   Marginal VFR   IFR   Intensive IFR   Very Intensive IFR
Visi :
Ceiling :
>= 8 km
>= 3000ft
5 to 8 km
1000 to 3000 ft
1500m to 5 km
500 to 1000 ft
800 to 1500m
200 to 500 ft
< 800m
< 200 ft
Symbols :   Thunderstorms  Fog  Heavy snow  Heavy precipitations  Wind > 20 kt






- Airport Elevation : 194 ft
- IATA code : MGA


MNMG - Augusto C. Sandino (Managua) International

CURRENT METAR :
  • 272100Z 09008KT 9999 -TS FEW020CB SCT070 31/24 Q1006 A2973 1CU023 1CI300 CB4C BECMG 9000 TS/VCRA

EXPIRED METARs :
  • 272013Z 09008KT 9999 TS FEW022CB SCT30 CB/N/E/W/NW
  • 272000Z 11004KT 9999 FEW022CB SCT300 32/23 Q1006 A2973 CB/N/E/W/NW TCU/SW NOSIG
  • 271900Z 11006KT 9999 FEW022CB SCT300 31/24 Q1007 A2976 CB/W/NW NOSIG

TAF MNMG
Valid from the 27 at 18:00 until the 28 at 18:00 UTC


271720Z 2718/2818 VRB04KT 9999 FEW022TCU SCT080
TEMPO 2720/2802 VRB08KT 7000 DZ/TSRA SCT020CB SCT070
MHTG FIR / North America



MET'MAP, your aeronautical weather chart ! - Copyright ORBIFLY December 2007 - Disclaimer

ORBIFLY MET'MAP TEAM :

Programming & Development : Alexandra Zaïnal
Concept & original design : Baudouin d'Aumeries
Assistance for programming : Marc-Olivier Méhu
Technical & hardware support : Manuel Goepfert

Contact : metmap@orbifly.com




SOURCES & CREDITS :

   NOAA       Earth
Advisory